Location: Gammelsbach
(49.5261°N, 8.9630°E)
Time: 04:13:38
(UTC+00:00)

GP-B - Pass Details

Date: 17 June 2025
Orbit: 619 x 624 km, 89.8° (Epoch: 12 July)

Event Time Altitude Azimuth Distance (km) Brightness Sun altitude
Rises 20:31:15 0° 9° (N) 2,912 7.2 -7.5°
Reaches altitude 10° 20:33:42 10° 21° (NNE) 2,000 6.1 -7.7°
Maximum altitude 20:37:34 30° 82° (E) 1,133 4.2 -8.1°
Enters shadow 20:41:12 11° 143° (SE) 1,920 4.9 -8.5°
